Theta_e
313 313 313 313 312 312 313 313 312 312 312 311 311 311 311 311 311 311 311 312 312 312 312 313 314 314 315 315 315 315 314 310 307 303 301 304 310 317 320 324 323 323 322 308 305 304 300 300 302 300 302 302 300 300 299 302 300 300 297 294 292 293 292 296 295 297 297 296 299 300 298 298 304 314 316 320 318 319 318 321 324 329 329 331 333 338 339 339
312 313 313 313 312 313 312 312 312 311 311 311 311 311 311 311 311 311 311 312 312 313 313 314 314 314 314 314 314 315 312 309 305 303 302 310 322 321 325 327 326 324 318 308 303 300 300 299 299 299 301 300 298 298 299 299 300 298 294 294 292 293 296 299 299 298 297 298 300 300 299 299 307 314 313 313 313 316 316 320 324 323 327 331 333 336 336 337
313 312 312 312 312 312 312 312 312 312 312 311 311 311 311 311 311 311 312 312 313 313 313 314 314 314 314 314 314 315 310 305 303 302 309 321 320 322 326 326 326 326 312 308 306 302 301 300 300 300 299 299 299 298 299 298 299 297 297 293 294 297 298 297 298 299 299 299 298 299 299 301 308 307 311 313 312 315 315 316 321 323 322 327 330 334 334 335
312 312 312 312 312 313 313 313 313 313 313 313 312 312 311 311 312 312 312 313 313 313 313 314 314 314 314 314 315 313 309 303 301 306 311 320 326 323 325 327 327 316 309 304 303 302 301 301 300 302 299 299 298 296 297 298 298 296 296 294 296 296 295 299 297 299 299 298 298 298 298 303 304 308 313 313 312 311 315 320 320 321 323 326 330 332 334 333
312 312 312 313 313 313 313 313 313 313 313 313 313 312 312 311 311 312 312 312 313 313 313 313 313 314 314 314 314 313 302 297 299 308 313 328 329 325 326 326 325 314 313 302 302 302 302 300 301 298 299 297 297 297 297 296 298 297 296 297 298 294 295 300 300 299 298 297 297 297 298 304 307 311 313 313 311 311 315 319 317 325 328 328 329 331 333 333
312 312 312 312 313 313 313 313 313 313 313 313 313 313 313 313 312 312 312 313 313 313 313 313 313 313 314 314 312 308 301 291 301 307 332 331 327 328 327 329 324 303 303 303 302 300 300 300 300 299 297 297 296 295 296 296 297 294 296 295 296 298 296 299 299 298 296 298 297 297 299 303 306 310 313 314 312 310 309 310 318 328 330 331 332 331 329 329
311 312 312 312 312 313 313 313 313 313 312 313 313 313 313 313 313 312 312 313 312 312 312 313 313 313 314 312 309 302 298 299 304 309 331 329 327 328 329 328 316 303 304 302 301 300 299 299 300 296 296 295 294 294 296 296 296 296 295 295 297 296 296 299 299 298 297 296 297 299 299 298 305 306 311 311 306 307 311 314 326 329 330 331 328 329 328 327
311 311 312 312 312 312 313 313 312 313 313 313 313 313 313 313 313 313 313 312 311 312 312 313 313 313 314 309 304 299 299 301 307 312 334 329 327 328 317 307 305 304 305 304 301 299 299 300 299 297 298 296 295 295 296 295 295 295 294 296 296 295 297 298 298 296 295 296 298 296 297 298 303 305 309 311 308 311 319 325 327 329 329 328 327 327 326 325
311 311 311 312 312 312 312 312 312 312 312 313 313 312 313 313 313 312 312 311 312 312 312 313 313 313 313 309 302 301 300 308 308 320 323 324 316 306 308 306 304 306 301 299 301 300 300 297 299 299 297 296 296 296 298 295 295 295 297 296 297 298 299 299 297 297 297 297 297 297 297 299 301 305 309 309 309 316 323 325 326 327 327 326 326 326 325 324
311 311 311 312 312 312 312 312 312 312 312 313 313 312 312 312 312 312 312 311 311 312 312 312 313 313 309 308 299 299 303 311 317 315 311 309 305 304 304 305 303 302 303 299 299 300 300 300 301 301 301 298 297 297 295 295 296 297 297 297 298 299 297 297 295 296 295 297 297 298 299 301 301 300 303 305 311 319 322 323 325 326 325 324 325 325 325 324
311 311 311 311 312 312 312 312 312 312 312 313 313 312 312 312 312 312 312 311 311 312 311 312 313 311 306 300 300 299 309 307 313 310 304 303 304 305 302 302 304 304 303 299 301 301 301 302 302 302 301 298 297 297 296 298 298 296 297 297 297 296 294 295 294 296 296 297 295 299 297 297 299 300 301 302 311 319 319 320 322 324 323 323 322 322 322 323
311 311 311 311 311 312 312 312 312 312 312 313 313 313 313 312 311 311 311 311 311 311 311 312 312 310 308 301 298 302 308 307 314 310 303 303 302 302 302 302 303 303 302 300 301 301 303 304 302 302 297 300 297 297 296 298 297 297 295 295 297 296 297 296 296 297 296 297 296 299 299 298 299 299 300 305 310 317 319 319 320 321 321 321 321 321 320 321
310 311 311 311 311 311 311 312 312 312 312 312 312 312 313 312 312 311 311 311 310 310 311 311 312 308 307 301 302 305 308 309 313 309 306 306 305 303 303 302 302 302 303 303 301 302 302 303 304 300 301 300 297 295 297 298 297 295 296 293 295 295 295 297 296 297 297 296 294 297 292 295 298 298 298 308 311 316 317 317 318 318 318 319 319 318 319 319
310 311 311 311 311 311 311 312 312 312 312 312 312 312 312 312 312 311 311 310 311 311 311 312 311 308 301 299 304 305 306 309 310 307 306 309 305 303 304 304 303 303 303 301 302 302 302 302 303 301 300 300 297 301 298 297 296 296 294 294 292 292 292 297 295 296 297 296 296 299 293 295 298 298 300 307 310 314 315 316 317 316 316 317 317 317 317 318
311 311 310 310 311 311 311 311 311 312 312 312 312 312 312 311 312 312 311 311 310 311 312 311 309 304 302 303 307 316 322 308 307 307 308 305 303 301 302 303 304 303 304 303 304 303 302 303 303 299 298 299 300 297 295 294 294 293 292 291 291 292 293 296 296 296 297 297 297 299 294 295 297 296 300 308 308 311 313 315 316 315 316 317 316 316 316 317
310 310 310 310 310 311 311 311 311 311 311 311 312 311 311 311 311 312 311 311 311 310 311 308 307 303 300 299 307 323 314 307 308 310 307 306 303 302 302 303 303 303 304 303 305 304 303 302 299 297 298 298 296 295 294 294 294 294 294 291 292 293 293 294 297 296 296 296 298 297 294 296 296 296 300 305 308 309 311 313 314 314 315 316 316 316 315 314
310 310 310 310 310 310 311 311 311 311 311 311 311 311 311 311 312 312 312 310 309 310 310 305 307 306 301 303 309 304 304 307 308 309 305 305 304 302 301 301 301 301 301 303 304 304 301 300 300 299 298 296 293 295 292 291 290 293 294 294 290 292 294 293 298 298 300 298 297 296 295 296 296 297 299 304 308 308 309 311 312 314 314 316 316 315 314 313
310 310 310 310 310 310 310 310 310 311 311 310 309 310 309 311 313 310 309 310 310 309 307 310 306 301 297 302 298 302 305 305 307 305 306 307 303 303 303 302 300 300 301 299 300 299 298 298 300 296 298 299 298 295 290 286 290 291 293 293 292 292 291 293 293 296 299 298 296 295 295 296 296 297 298 306 305 308 309 309 311 312 313 314 315 314 313 312
310 310 310 310 310 310 310 310 310 310 310 308 310 311 311 311 310 309 306 307 300 301 298 301 300 296 292 299 302 304 305 307 304 305 304 304 303 304 304 301 300 300 297 298 297 298 299 300 299 297 293 295 294 294 292 291 291 292 294 293 293 293 293 294 296 296 297 296 294 295 295 296 297 297 298 303 303 307 308 308 308 309 310 312 313 313 313 312
310 310 310 310 310 310 310 310 309 310 310 306 307 308 308 306 304 303 305 305 302 301 300 300 300 300 301 302 303 307 308 306 304 302 303 305 304 302 300 300 301 301 298 297 297 300 300 296 293 292 294 296 296 298 297 295 295 294 294 294 293 293 294 295 294 296 298 294 295 296 297 295 297 298 298 302 303 305 307 307 307 308 308 309 311 313 313 313
310 310 310 310 310 310 310 310 310 309 309 306 304 307 302 299 298 297 302 303 305 303 302 302 302 302 302 303 304 307 305 305 305 305 302 310 304 303 298 298 298 297 295 293 296 300 299 293 294 297 299 299 296 297 296 295 295 295 295 294 292 291 294 295 295 298 298 295 294 294 295 297 298 299 300 300 300 303 305 306 307 307 308 309 310 312 313 314
310 310 310 310 310 310 310 310 310 309 308 305 305 303 302 305 307 308 305 299 303 303 303 303 303 303 305 305 307 308 306 303 303 305 303 303 299 299 296 296 294 294 296 294 295 297 294 291 297 300 297 297 297 296 297 298 295 294 294 293 293 293 293 295 295 298 298 297 296 294 296 297 299 300 301 299 301 305 307 307 308 308 308 308 309 311 313 312
310 311 311 310 310 310 310 310 309 308 306 304 306 304 306 311 310 309 308 301 300 303 302 301 302 302 303 306 307 309 302 302 300 303 301 302 299 299 296 295 295 295 293 296 293 292 290 293 300 296 297 300 297 297 297 296 296 294 293 292 292 292 292 291 297 297 298 297 296 296 295 298 300 299 299 301 299 301 303 303 307 309 309 308 309 310 312 312
310 310 311 310 310 310 310 309 306 305 305 303 302 308 309 308 308 308 307 300 297 303 302 304 303 303 302 303 307 306 302 302 302 302 305 301 299 296 296 293 292 292 293 294 296 292 291 297 297 296 297 299 298 295 296 296 294 294 295 294 293 292 295 294 295 297 297 296 296 295 296 296 298 297 297 300 300 300 302 300 301 302 305 308 310 310 312 313
310 311 311 310 311 309 310 307 306 306 304 303 304 308 308 311 310 309 307 301 300 303 307 301 304 304 306 310 308 305 303 299 303 303 303 301 294 296 296 294 295 292 291 291 291 291 292 294 297 296 295 296 297 294 295 297 292 295 297 297 298 299 296 294 295 296 294 293 295 293 288 289 294 296 296 298 299 300 300 300 302 301 301 303 305 308 311 313
311 311 311 310 310 309 307 305 307 306 303 307 309 308 309 311 312 312 307 294 292 297 301 297 305 300 309 303 306 303 301 299 302 304 301 301 306 299 296 295 294 293 290 291 293 294 294 295 295 297 298 296 295 295 297 298 293 291 294 298 298 297 297 297 294 294 290 288 293 294 288 285 296 295 296 297 297 300 302 299 300 301 301 301 304 307 309 310
310 311 311 310 310 306 302 307 303 305 305 306 310 312 312 314 314 313 303 291 288 297 295 301 300 300 306 302 305 300 292 295 300 300 301 305 301 302 297 294 294 293 293 296 294 291 294 295 296 297 298 296 296 294 297 296 294 291 297 295 296 296 296 297 296 294 292 294 296 293 293 288 288 294 297 295 297 298 300 300 300 299 301 301 303 304 308 310
310 310 310 310 308 307 303 304 304 304 306 309 310 314 315 314 312 315 299 280 282 298 293 297 300 305 303 301 301 298 298 299 296 298 300 300 301 299 298 294 294 295 293 294 287 294 295 295 293 294 296 294 293 298 298 298 295 295 294 295 296 297 298 296 295 293 292 291 288 292 293 288 287 293 295 295 295 297 297 298 299 300 301 301 301 302 303 306
310 310 310 311 306 306 304 303 306 307 308 311 314 315 314 313 311 302 288 281 296 295 305 296 306 301 298 300 299 293 297 298 296 298 299 300 299 299 296 295 294 293 292 295 291 295 292 295 295 296 294 292 297 294 297 297 295 294 294 294 293 294 294 295 293 292 291 289 285 290 292 286 287 293 295 296 294 294 296 297 298 299 300 302 302 303 304 303
309 309 309 308 305 307 306 304 304 309 314 314 314 313 315 314 306 293 284 279 299 289 297 298 297 294 296 294 294 294 297 297 295 296 299 298 299 298 293 296 294 294 294 294 292 292 292 296 296 296 295 296 295 294 294 297 296 296 295 294 293 292 292 292 291 291 290 283 287 291 289 289 284 291 292 292 293 293 295 298 300 301 301 301 302 302 302 302
309 309 308 308 304 309 306 304 305 307 314 314 312 313 315 304 295 283 277 288 295 295 295 294 292 293 291 293 292 293 293 292 295 295 295 297 296 295 295 294 297 294 293 294 293 293 293 292 295 297 298 295 295 292 292 292 294 295 295 293 292 291 292 291 289 291 283 281 288 287 287 290 283 288 293 294 295 295 295 296 297 298 299 299 300 299 301 302
308 308 308 307 306 309 306 306 305 313 314 313 314 310 306 293 293 284 284 298 286 291 290 291 291 289 290 290 290 291 291 293 293 294 293 292 294 293 294 291 293 288 288 288 289 293 294 294 291 292 300 297 295 293 292 292 293 295 294 293 287 285 284 281 285 280 282 282 287 287 288 286 286 292 295 293 295 296 297 296 297 297 297 298 298 299 300 302
307 308 309 309 310 309 309 307 313 313 314 313 308 305 296 285 282 288 289 291 287 293 290 291 289 289 287 290 290 290 291 291 292 292 292 291 292 292 287 290 292 292 285 289 287 289 291 292 291 294 294 296 296 291 290 290 293 293 292 290 287 281 278 273 280 280 282 287 287 287 289 284 290 292 294 293 296 296 297 298 298 297 297 297 297 298 299 301
307 308 309 310 309 309 311 314 313 311 311 309 308 298 289 283 284 297 292 292 290 291 290 289 289 289 289 290 289 290 290 290 291 292 292 292 292 292 292 290 290 292 294 288 287 287 283 286 291 292 291 294 293 295 295 294 292 292 292 292 290 287 282 275 281 277 280 283 285 288 285 284 285 289 294 295 296 297 297 296 297 298 297 298 298 299 300 301
305 305 306 309 310 312 313 312 312 314 309 306 296 291 282 282 287 289 290 290 290 290 290 288 288 288 289 289 288 291 291 290 290 292 291 292 290 289 290 292 292 291 291 287 288 285 285 286 292 292 292 292 293 292 291 291 291 290 291 292 289 287 291 283 284 285 284 283 282 284 284 288 290 293 295 297 296 296 296 296 296 296 297 297 298 299 299 301
307 311 309 312 315 316 313 314 311 312 310 301 292 284 282 290 289 289 290 292 291 289 289 290 288 288 285 288 289 289 292 290 290 292 290 290 289 290 290 290 292 291 290 287 290 285 286 286 291 292 292 293 292 293 292 293 286 291 289 289 290 293 292 283 281 282 280 282 281 285 286 289 293 293 295 295 294 294 295 294 295 295 296 298 297 298 299 300
310 311 311 312 307 307 312 312 312 311 304 297 290 284 291 293 293 292 296 290 291 290 288 288 290 287 287 285 287 287 290 291 289 289 287 289 289 290 290 293 293 293 292 293 288 290 287 287 291 290 292 293 293 292 293 292 293 290 287 290 292 294 296 289 281 280 280 279 280 283 283 286 286 284 294 293 292 293 293 293 293 295 296 296 297 298 299 299
309 311 314 306 306 306 309 311 312 306 303 298 287 294 295 291 294 291 291 291 291 290 289 289 288 288 285 286 286 288 290 287 288 289 286 288 287 292 289 290 293 291 293 293 291 289 290 285 290 288 290 294 293 293 293 294 293 292 291 295 290 285 284 288 284 276 276 275 279 282 282 284 287 288 290 291 291 292 292 293 294 294 295 296 297 299 300 301
301 306 304 305 308 304 305 311 310 307 299 292 285 290 295 295 297 291 292 291 290 291 290 288 289 287 287 285 287 285 287 287 287 287 284 287 286 290 290 290 291 293 292 292 294 292 292 285 288 290 290 292 293 293 287 291 294 293 293 292 290 292 290 285 285 287 285 277 274 278 282 282 289 291 293 292 293 292 292 292 293 294 294 296 297 298 299 300
303 304 302 310 306 304 306 311 306 300 296 288 289 293 296 293 294 294 292 293 291 292 291 290 287 289 287 288 286 288 286 286 288 287 286 288 287 289 290 292 290 293 291 294 293 292 289 291 282 290 290 291 289 292 290 291 290 290 291 289 290 290 289 289 288 286 284 279 278 278 278 284 290 291 292 294 294 293 293 293 294 294 295 295 296 297 299 299
298 301 301 308 305 303 307 302 299 296 294 293 295 295 291 291 294 294 292 291 293 293 292 291 290 289 291 288 288 288 287 286 287 288 287 287 287 285 291 291 290 291 292 293 293 293 288 287 285 289 289 289 290 290 290 290 291 291 291 290 290 287 286 282 281 285 285 283 277 276 278 287 292 293 293 296 296 295 294 293 294 294 294 296 297 298 298 299
296 289 295 303 304 305 304 296 290 290 293 292 292 290 291 298 290 290 292 291 292 292 292 293 288 291 287 289 290 287 288 287 286 286 286 287 288 288 290 290 290 290 291 290 291 293 293 290 288 285 287 289 290 290 289 290 291 291 291 290 290 292 291 286 279 283 284 285 284 284 280 284 294 294 295 296 296 295 295 295 294 294 295 296 297 298 299 299
293 292 301 302 303 300 299 291 292 290 291 291 291 291 290 290 289 290 291 291 291 290 293 292 291 290 290 290 288 287 287 288 286 287 285 288 288 291 291 291 290 290 292 292 290 294 298 287 285 286 288 288 288 287 288 287 289 288 288 289 290 289 291 289 288 289 285 284 282 282 279 285 293 295 295 295 295 295 296 295 295 295 295 297 297 298 298 300
294 295 300 304 302 302 298 287 287 286 291 293 291 291 290 290 290 291 290 290 289 291 290 290 290 288 289 287 290 288 288 285 286 286 286 286 289 291 291 291 294 295 293 292 291 295 286 289 286 282 281 284 287 288 288 288 289 288 287 288 286 287 288 288 288 288 283 285 285 283 278 284 292 295 295 294 294 293 293 294 295 294 296 297 297 298 299 300
295 295 296 298 300 301 293 290 290 283 288 288 289 290 290 291 289 290 291 291 290 289 290 290 289 290 290 289 287 287 288 286 287 286 287 287 289 291 290 291 294 296 298 300 299 295 288 288 286 279 276 274 273 274 279 283 286 287 287 286 286 287 287 287 283 285 280 282 283 283 282 288 292 293 293 294 293 293 294 295 295 295 295 296 297 298 299 300
291 284 290 293 294 295 292 292 291 290 286 288 285 287 287 289 292 291 290 290 289 290 289 289 289 290 288 288 289 289 287 288 287 287 288 288 289 290 289 291 291 294 300 299 296 295 288 288 288 286 283 281 283 285 287 285 286 284 285 286 287 286 286 287 287 282 281 283 282 285 286 287 289 291 291 293 293 293 293 294 294 294 295 296 297 298 298 298
291 288 285 285 291 291 289 291 291 290 288 289 284 287 287 287 288 290 291 290 290 290 290 289 288 289 288 289 287 287 286 287 288 289 288 287 287 289 289 289 290 294 298 295 296 290 288 284 287 286 287 287 286 286 284 285 284 285 285 286 286 285 287 287 283 282 288 282 279 285 287 285 288 291 292 293 294 294 295 295 295 296 296 297 297 297 298 298
287 286 290 289 285 284 286 288 290 289 289 289 287 288 286 286 287 287 290 290 289 291 289 288 289 287 287 287 289 286 286 286 287 285 287 287 286 289 288 289 289 291 294 291 294 293 288 283 285 285 286 285 284 285 283 284 285 285 285 285 285 287 285 284 283 288 286 282 281 285 287 284 288 290 294 294 295 294 294 295 296 297 296 296 297 297 296 296
291 289 290 291 287 287 287 289 289 288 287 291 289 288 285 285 285 286 286 288 288 290 288 284 286 287 286 286 289 287 286 283 282 285 286 286 286 288 287 287 289 288 290 291 291 290 288 284 286 284 284 284 285 285 284 284 284 284 285 286 286 286 286 286 287 287 286 285 287 287 285 285 290 292 294 295 295 294 294 293 295 295 296 296 296 296 296 296
288 288 288 290 289 290 290 288 288 288 287 288 285 287 285 285 285 286 287 286 285 288 289 289 286 286 287 286 288 287 286 286 287 284 287 287 286 286 287 288 287 289 289 288 289 290 287 282 286 284 282 283 285 284 283 284 284 283 285 285 285 285 285 286 285 285 285 284 285 284 283 283 290 292 293 291 291 292 291 294 295 296 296 296 296 295 295 295
290 291 291 288 286 288 290 287 287 286 286 286 286 287 287 286 286 285 286 287 286 286 288 286 287 287 286 287 287 285 286 286 286 287 290 288 285 290 287 287 288 287 287 287 289 288 288 282 285 284 279 279 283 284 285 284 283 282 282 283 283 284 281 282 281 285 284 283 284 283 281 283 289 292 291 290 291 292 292 295 295 295 296 296 295 294 294 295
291 292 291 289 284 286 286 285 284 285 283 285 286 286 285 286 286 286 284 286 286 287 287 288 288 288 286 287 285 285 287 287 288 289 289 290 289 288 288 288 289 288 287 286 287 286 287 284 281 281 278 277 282 284 283 282 281 278 279 281 284 285 286 287 287 287 288 288 283 281 283 289 290 291 290 290 290 291 293 295 295 295 296 296 294 294 294 295
Wind_Speed
11 10 10 9 9 9 9 9 9 8 8 8 9 9 9 9 10 9 8 8 8 8 9 9 10 11 11 12 12 13 11 9 9 3 2 9 6 6 9 2 11 11 2 2 2 4 3 2 2 5 2 1 2 1 2 1 1 2 1 2 2 0 4 4 5 6 2 5 8 8 3 6 4 3 4 5 7 9 7 6 3 7 6 4 7 14 15 13
11 10 10 10 10 9 9 9 9 8 8 8 8 8 9 8 8 8 9 9 9 8 8 9 10 10 11 11 12 11 9 7 7 5 14 6 5 9 6 6 9 11 7 3 5 4 5 1 1 1 3 2 1 1 1 2 2 1 2 1 4 4 4 3 2 3 3 8 9 9 6 4 3 5 3 4 9 12 10 5 4 8 7 9 12 15 14 13
11 10 10 9 9 9 9 9 9 9 9 9 8 9 8 8 8 8 8 8 9 8 9 9 10 11 11 11 11 8 8 3 3 2 2 3 11 8 9 9 10 8 3 5 2 5 3 3 2 2 2 2 4 2 1 2 1 1 2 2 5 4 5 4 3 6 6 8 11 9 6 2 2 2 2 6 8 8 13 11 7 7 10 12 14 15 14 13
11 10 10 9 10 10 9 9 9 9 9 9 9 9 9 9 9 9 9 9 9 9 9 10 10 11 11 11 11 8 3 4 2 1 3 2 5 10 11 10 8 6 7 6 4 4 3 5 4 1 2 2 1 1 2 2 2 2 2 4 2 2 3 3 6 8 8 4 5 4 5 1 2 2 4 10 10 6 5 6 6 14 16 16 16 16 14 13
11 11 11 10 10 10 10 9 9 9 9 9 8 8 8 8 8 8 9 9 9 9 9 10 11 11 11 12 8 3 2 1 2 3 4 5 5 12 11 9 7 4 4 7 7 5 4 2 2 4 2 3 1 0 0 1 1 4 5 2 3 2 5 9 7 5 4 2 4 2 7 1 2 2 7 12 10 8 6 7 3 5 19 20 19 16 14 14
11 11 10 10 10 10 9 10 10 9 9 9 9 9 8 8 8 8 8 8 9 9 9 10 11 11 12 12 3 2 2 3 1 3 7 3 11 13 12 10 8 8 9 5 3 2 2 2 1 2 1 1 2 2 1 1 2 4 2 4 5 5 7 4 3 2 4 3 4 6 3 1 2 2 8 9 1 3 2 3 2 9 11 15 16 17 16 15
11 11 11 11 11 11 11 10 10 9 9 9 9 9 9 8 8 8 8 8 8 8 9 9 10 11 11 6 2 3 0 4 4 3 6 9 11 12 14 11 9 7 5 6 3 1 2 3 2 2 3 1 1 1 1 2 1 4 4 1 6 5 8 7 8 3 4 3 7 2 3 5 3 6 3 5 2 4 4 2 8 11 12 13 14 14 16 15
11 11 11 11 11 10 10 10 10 9 9 9 9 9 9 8 8 8 8 7 8 8 9 9 10 10 10 4 1 1 1 2 3 3 6 11 12 12 11 7 8 5 5 6 5 4 2 4 4 3 2 2 1 3 2 2 1 3 4 3 5 2 7 8 6 5 4 8 6 2 4 3 5 2 6 7 1 1 3 7 13 13 13 12 12 14 14 13
12 12 11 11 10 10 10 10 10 9 9 8 8 8 8 7 7 7 7 6 7 8 8 9 9 10 8 3 0 0 3 4 1 1 5 7 8 8 9 7 2 7 5 4 2 4 4 1 2 3 1 1 3 2 1 3 3 6 7 2 4 7 8 5 7 6 6 5 2 3 0 2 1 4 4 1 1 3 7 9 13 13 13 13 13 13 13 13
12 12 11 11 11 11 11 11 10 9 9 9 8 8 7 7 7 6 6 6 6 7 7 8 8 10 3 1 1 1 1 2 1 3 5 7 6 6 4 8 7 8 6 2 5 4 2 3 1 5 4 2 2 2 2 3 1 4 5 6 9 10 6 4 2 2 2 4 0 2 4 3 1 1 3 2 2 6 8 9 11 14 12 11 11 11 9 11
12 12 11 11 11 11 11 10 10 9 9 8 8 7 7 7 6 6 6 6 6 5 6 7 7 8 2 2 2 2 1 1 2 3 6 4 7 6 6 5 7 6 5 3 3 5 2 4 3 3 1 1 3 1 3 1 2 3 5 6 8 6 3 5 4 5 1 1 0 1 4 1 3 2 2 1 3 5 10 9 10 10 11 10 10 10 8 8
13 12 12 12 11 11 11 11 10 9 9 9 8 8 7 6 6 5 5 5 5 5 5 5 7 3 1 1 2 1 1 0 4 3 4 5 4 2 3 4 6 5 6 5 4 4 5 4 4 2 1 2 2 0 3 2 2 2 1 6 7 4 3 5 3 3 2 2 3 2 5 2 2 2 3 0 5 5 9 9 9 9 9 9 10 8 8 8
12 12 12 12 11 11 11 11 11 10 9 9 8 7 7 6 5 4 4 4 2 3 4 5 3 1 2 1 4 3 1 3 5 4 3 2 5 4 3 3 3 3 4 5 3 5 4 4 2 1 1 2 1 2 2 0 3 0 2 2 6 4 2 9 1 2 3 3 2 1 2 2 4 2 3 1 6 7 8 9 9 7 7 7 8 7 7 6
12 12 12 11 11 11 11 11 11 10 9 9 9 7 7 6 5 4 3 3 3 3 3 3 1 2 1 3 2 1 5 3 5 5 4 1 5 2 3 3 3 3 3 3 1 1 5 0 1 1 2 4 1 3 4 2 2 2 3 1 2 3 2 7 4 8 7 3 1 2 2 1 2 4 4 0 3 10 9 9 9 8 8 8 7 7 8 8
12 12 11 11 11 11 11 11 11 10 9 9 8 8 6 7 5 3 2 2 2 3 1 3 1 1 1 4 3 2 8 5 5 4 7 7 6 2 2 1 3 2 2 2 1 1 2 4 2 1 1 1 2 4 2 1 3 2 2 1 0 2 2 4 2 8 6 2 4 2 1 2 5 6 3 0 3 4 8 9 10 9 9 10 9 9 9 7
12 12 11 11 11 11 11 11 10 10 9 9 8 8 8 7 6 4 2 2 2 3 2 2 1 1 1 3 3 5 4 1 1 2 4 3 6 1 3 5 3 3 3 1 0 2 2 2 2 1 2 1 1 1 1 1 1 3 2 1 1 1 3 2 6 3 1 3 3 3 2 4 2 5 0 1 5 5 5 7 9 9 9 9 9 8 7 6
12 11 11 11 11 10 10 10 9 9 8 8 8 8 6 4 4 2 1 1 1 1 1 0 1 1 2 1 1 1 1 3 1 2 2 0 3 5 6 3 2 3 5 3 3 3 2 2 1 1 4 2 0 0 1 2 1 2 2 2 1 2 3 2 5 5 6 6 2 6 1 2 1 4 1 2 5 6 7 8 8 9 9 10 8 7 7 7
11 11 11 11 10 10 9 9 8 8 7 6 6 1 4 4 6 7 2 1 1 1 1 1 1 1 4 1 2 1 1 4 2 3 2 1 4 4 4 3 1 3 4 4 1 2 2 2 2 1 0 1 0 3 1 1 1 1 2 1 2 2 2 4 2 5 7 5 3 1 2 6 4 2 4 8 4 7 7 6 7 8 8 8 8 8 9 8
11 11 10 10 10 9 8 7 7 6 4 5 5 8 7 7 3 1 1 1 1 0 1 1 1 1 4 1 2 4 2 3 2 2 4 7 1 3 4 3 5 1 1 1 1 1 1 2 1 1 1 2 2 2 1 1 2 2 1 2 1 1 2 0 1 2 5 3 2 1 3 4 6 5 2 5 4 7 6 3 3 5 6 6 7 7 7 7
11 11 10 9 9 8 7 6 6 4 2 1 1 3 2 1 1 0 1 0 3 4 3 3 1 2 7 4 3 4 3 2 3 2 3 1 9 5 4 1 3 5 2 2 1 2 2 2 1 1 2 3 3 3 1 3 4 4 3 2 2 1 2 3 3 2 2 2 2 1 2 2 6 6 1 3 4 5 6 7 6 7 8 9 9 10 10 9
12 10 9 8 8 6 6 5 4 2 1 1 3 1 3 1 3 3 6 6 4 4 6 5 5 5 5 2 3 3 3 2 3 2 2 2 4 8 2 2 3 1 1 1 2 2 1 2 3 5 5 3 0 4 6 6 1 3 2 3 3 2 2 2 2 3 1 2 1 1 1 2 5 4 2 1 3 9 9 8 8 9 10 9 11 11 11 7
12 10 9 8 6 5 4 4 1 1 4 2 1 3 3 2 2 0 1 5 3 4 3 5 2 5 3 5 3 3 3 3 1 1 1 3 2 3 1 2 2 3 2 1 0 1 2 2 3 4 2 5 5 4 3 3 4 2 3 2 1 3 4 5 1 1 2 1 1 1 4 3 3 4 2 3 7 5 6 10 10 11 11 10 10 11 9 6
12 10 8 6 5 4 3 2 3 3 2 2 3 3 3 2 0 1 1 1 5 1 2 0 3 5 6 2 2 4 1 4 2 2 6 4 2 2 5 2 2 2 0 1 3 1 2 2 4 3 6 5 3 4 6 5 2 3 2 4 3 2 2 1 2 3 4 2 2 1 4 4 3 2 5 2 3 4 2 4 7 6 10 12 13 11 10 12
12 10 8 6 3 1 1 5 6 3 2 2 2 3 1 1 1 5 4 3 4 6 3 4 3 3 4 1 4 6 3 1 2 2 1 4 4 2 4 4 3 1 3 4 6 4 3 4 4 6 3 3 3 3 5 4 3 0 2 1 1 2 2 2 2 3 1 2 1 2 4 4 1 4 2 2 2 4 2 2 5 5 4 3 4 6 9 12
13 10 7 4 3 0 2 4 1 2 2 2 3 3 2 3 3 6 2 2 0 3 1 0 2 4 3 2 2 3 2 1 6 1 2 5 6 4 1 1 2 3 1 2 3 0 5 1 4 4 2 2 5 3 5 4 2 2 6 8 6 4 4 3 2 2 1 2 5 4 4 1 2 1 2 1 3 2 1 4 2 2 3 5 9 12 11 11
12 10 7 4 2 1 4 1 1 3 2 2 2 1 3 3 4 4 3 3 2 3 3 2 2 2 2 1 2 1 1 2 1 3 2 2 3 3 3 2 1 1 4 4 2 1 1 1 2 4 5 3 2 2 2 6 2 2 4 8 5 5 2 4 2 0 2 3 3 2 4 2 0 2 4 0 2 4 4 3 4 2 2 6 9 9 10 11
12 10 7 3 1 5 2 1 1 3 1 1 2 3 3 2 2 5 2 3 2 0 1 1 1 1 1 0 4 4 1 3 1 2 2 2 2 2 3 1 1 2 1 3 2 2 2 1 4 4 4 3 3 1 4 8 5 4 1 5 7 6 5 4 2 2 1 1 2 2 1 3 4 2 1 2 4 4 1 4 2 2 3 4 6 8 10 11
12 10 7 3 3 4 2 2 1 1 1 1 3 3 4 0 3 2 1 3 1 2 2 2 1 1 1 2 1 1 3 2 1 1 2 2 1 3 0 5 5 4 4 2 3 1 3 3 3 1 1 1 2 2 7 8 5 1 1 2 5 3 2 5 2 2 1 2 4 2 2 3 3 1 3 3 4 1 3 6 4 4 4 4 6 8 9 11
11 9 6 2 2 3 1 1 0 2 1 2 4 4 1 3 4 3 2 1 2 1 3 2 2 2 4 1 2 3 2 3 2 2 3 3 6 2 3 4 4 6 2 2 5 1 3 5 1 3 3 5 1 1 6 9 4 1 5 8 7 6 7 2 2 3 1 2 4 3 1 5 6 1 4 2 1 1 1 7 6 6 7 7 7 7 7 9
11 8 6 1 3 1 1 0 4 2 2 4 4 1 2 1 1 0 1 1 1 1 1 3 1 3 3 2 2 6 2 2 0 5 4 3 3 5 4 3 4 4 2 3 2 2 3 3 0 2 3 1 4 4 1 0 3 7 3 6 5 6 3 2 4 1 2 2 7 1 2 3 7 1 2 2 1 3 6 4 3 6 8 8 8 9 8 8
11 7 4 5 2 1 2 1 2 1 2 4 1 3 2 5 2 3 1 0 2 3 1 3 1 3 4 3 2 4 2 3 5 4 2 2 1 5 2 1 4 3 1 3 3 4 3 2 3 2 2 3 3 5 3 2 3 4 1 3 4 3 1 2 2 2 2 3 1 4 1 3 6 1 1 1 3 4 5 5 7 8 10 10 11 11 11 9
12 6 4 6 2 0 2 3 2 0 3 3 4 3 2 2 1 0 1 3 1 3 3 4 1 1 3 1 3 6 3 2 3 4 2 2 1 1 2 2 1 2 1 2 1 4 3 2 0 4 2 3 3 4 2 1 1 3 3 3 3 1 1 1 2 3 4 4 3 4 2 2 8 7 2 1 1 1 1 4 4 7 10 11 11 12 10 9
13 5 5 6 2 2 5 1 2 3 5 3 3 2 2 3 1 1 1 2 0 1 1 1 3 4 1 2 5 4 1 5 5 2 1 2 1 4 1 2 1 2 4 1 1 3 5 2 1 1 0 2 2 6 3 3 4 5 5 3 4 3 1 2 1 1 3 4 2 1 2 3 2 3 2 0 1 2 3 2 4 6 8 10 10 10 9 8
10 3 4 4 5 4 5 4 3 5 2 3 2 3 5 2 1 1 2 2 1 2 1 3 3 2 5 3 2 4 2 0 4 4 4 2 3 2 2 2 2 3 2 3 3 0 2 4 0 2 2 2 2 3 2 2 5 4 3 5 4 4 4 2 4 4 4 2 2 0 2 2 3 3 2 1 3 3 3 4 5 5 6 7 7 7 6 8
6 3 2 2 2 4 6 4 2 3 3 2 6 4 2 3 2 2 1 2 2 3 1 2 1 3 3 3 4 1 2 1 3 2 5 3 2 1 3 4 5 3 2 2 1 0 2 5 2 1 2 2 1 2 1 5 5 1 1 3 3 4 4 7 1 3 3 1 1 3 2 1 1 2 3 2 1 3 5 5 6 6 6 7 5 6 8 8
1 2 2 1 2 4 4 1 3 3 2 3 4 1 2 2 1 2 1 2 2 0 4 2 5 3 2 1 1 2 2 2 5 2 3 3 1 3 2 2 3 1 0 0 2 3 1 2 2 4 1 3 2 2 1 1 4 3 3 5 1 3 4 5 2 4 1 1 4 2 2 3 3 1 3 2 2 3 4 4 5 6 6 6 6 7 9 9
5 3 2 4 3 6 4 0 1 3 5 4 4 1 2 1 3 4 2 1 2 2 2 1 2 2 0 1 2 4 3 2 2 3 1 0 1 4 3 1 1 1 1 2 2 2 2 2 1 0 1 2 1 0 3 4 0 7 3 3 5 1 2 2 2 1 0 4 2 2 3 3 4 2 5 5 3 1 2 4 4 4 5 7 7 7 9 10
4 3 1 2 4 7 3 2 1 5 3 2 1 1 1 2 2 2 0 1 2 1 2 2 1 1 1 1 0 1 4 2 4 2 1 1 2 1 1 2 2 2 4 2 1 1 2 4 1 2 2 3 3 2 2 4 3 2 2 4 3 2 4 1 1 2 2 2 2 2 1 2 5 4 6 9 7 5 1 2 3 5 6 6 6 8 9 9
2 2 1 0 3 6 3 1 5 2 1 2 0 0 3 2 1 1 1 2 0 2 0 2 1 0 3 2 2 1 1 2 0 1 0 0 2 1 2 0 1 1 3 2 0 2 1 2 2 1 1 4 3 2 3 2 4 4 2 3 2 2 2 3 2 1 2 3 0 1 2 3 6 2 6 9 8 6 3 1 2 2 3 3 5 6 7 8
4 0 1 0 7 6 1 2 3 4 3 1 2 2 0 2 2 3 1 1 1 2 1 1 2 1 2 2 2 0 0 1 3 2 1 0 1 2 2 2 2 5 3 1 3 1 0 0 2 1 2 2 3 2 2 1 3 3 2 0 2 3 2 1 2 1 3 2 2 1 2 3 1 2 4 9 8 7 5 4 2 0 2 3 5 5 6 7
0 1 2 4 10 5 1 6 4 3 3 1 1 1 1 1 2 2 2 1 1 1 2 3 4 2 3 2 3 2 2 1 1 2 3 2 0 1 1 2 1 4 2 1 5 2 1 1 2 3 3 3 2 2 2 0 2 0 1 2 2 4 4 3 4 3 1 3 3 3 4 1 1 2 3 6 8 6 4 2 1 1 2 4 4 6 6 6
2 2 2 6 10 3 3 2 2 1 2 3 2 2 0 2 2 2 3 2 2 1 3 3 1 2 2 2 0 4 3 2 1 1 1 3 1 1 0 2 2 3 1 1 1 1 0 1 0 3 5 5 2 2 2 3 2 0 2 2 1 1 1 3 5 3 0 1 3 1 1 2 3 1 2 2 3 3 3 4 3 1 3 3 4 4 5 6
4 3 5 7 8 1 4 4 1 1 1 1 4 2 2 0 1 1 0 4 2 1 1 1 2 3 2 2 2 2 3 2 4 1 1 2 2 0 3 6 3 1 1 2 1 1 2 0 1 3 3 3 0 1 2 2 3 2 2 1 3 4 3 5 4 1 3 4 3 2 3 1 2 2 1 1 1 1 3 4 4 1 2 3 4 5 5 6
2 3 5 4 9 2 4 3 1 0 2 3 2 2 1 1 1 3 3 3 2 3 1 1 1 1 2 0 2 3 2 3 0 2 2 1 3 2 2 5 2 2 1 1 0 2 1 1 1 1 2 3 4 3 3 3 2 1 1 1 2 2 2 2 3 2 2 5 4 4 8 2 4 1 1 1 0 1 3 2 1 0 3 3 4 4 4 4
3 1 2 7 10 6 4 1 2 2 2 2 3 5 5 1 1 1 1 2 2 1 1 1 1 2 1 1 3 2 4 1 1 1 2 1 1 1 2 6 5 3 1 1 1 1 1 2 3 3 4 5 3 2 5 3 2 2 1 1 1 2 5 3 3 3 4 1 4 4 1 1 2 0 3 2 1 1 4 2 2 1 1 3 4 4 5 5
3 1 4 5 7 6 5 1 3 2 2 1 2 1 1 3 1 3 1 3 1 2 2 1 1 1 3 1 3 1 2 3 1 1 2 2 1 1 1 4 4 3 1 8 5 1 1 1 3 5 7 8 8 7 2 2 1 4 1 1 3 2 2 2 2 2 4 2 5 4 1 1 5 9 8 6 3 3 7 5 5 5 4 3 3 4 4 4
1 4 2 3 5 6 3 3 4 3 1 1 1 1 2 2 4 3 2 2 3 0 2 4 2 2 1 2 1 2 0 1 2 2 2 2 1 2 3 3 3 7 9 2 4 3 2 1 3 2 6 7 2 3 1 2 5 4 4 6 3 3 2 5 4 4 4 1 8 4 5 5 6 7 9 9 7 6 5 4 4 5 4 4 4 4 4 4
3 0 1 1 0 2 3 3 6 3 2 1 0 0 2 3 4 1 5 3 1 2 1 1 4 4 1 1 3 3 1 2 2 2 0 1 1 1 1 4 2 7 6 2 3 1 1 2 1 2 4 3 4 4 3 3 5 5 5 4 7 5 4 6 5 5 7 6 10 6 10 6 6 7 6 8 8 9 8 7 3 4 4 5 5 5 5 4
3 0 1 2 0 0 0 4 3 1 3 4 1 3 2 3 3 1 1 5 4 3 4 1 1 4 3 1 0 1 1 3 0 1 2 1 1 2 1 0 2 3 3 3 3 1 1 2 2 2 4 2 4 4 2 5 3 4 7 7 7 6 8 9 10 5 10 11 4 3 7 11 7 6 6 4 1 1 2 1 1 5 5 6 5 4 4 3
4 3 2 4 3 2 3 2 1 2 2 5 1 3 1 2 3 5 0 2 2 2 2 3 0 3 3 3 2 2 2 3 2 1 1 1 0 1 1 2 1 1 3 1 0 1 1 1 4 2 2 6 3 2 3 6 5 9 9 7 4 6 9 8 6 2 1 9 4 3 7 11 4 4 7 3 1 2 2 5 6 5 5 7 6 5 4 3
1 1 1 2 2 4 3 3 3 2 1 4 3 2 1 3 3 2 2 3 2 2 4 1 2 2 2 4 6 3 1 2 5 4 2 4 2 2 2 1 2 2 2 0 2 0 1 1 2 1 4 4 4 9 10 6 7 9 9 7 10 10 9 4 5 6 5 8 5 5 6 7 8 6 5 3 3 5 5 6 5 5 5 5 5 5 3 3
1 1 1 1 0 3 2 1 1 1 2 2 2 2 1 2 3 2 2 1 3 4 1 2 2 1 2 4 5 5 7 6 8 7 5 5 3 3 1 1 4 2 1 1 1 2 3 1 1 1 4 5 5 4 5 5 7 11 8 10 15 11 9 6 6 4 12 9 8 8 9 2 3 2 6 7 6 5 4 5 4 3 4 4 5 4 3 1
Wind_Direction
333 331 331 331 327 325 326 330 324 317 315 312 312 309 310 316 321 321 316 313 312 314 311 307 316 319 318 323 327 323 346 327 320 343 270 244 182 171 176 56 166 175 97 75 73 135 49 20 130 357 123 202 7 213 10 181 43 206 133 114 200 141 211 196 210 196 43 300 314 316 7 305 262 119 100 117 99 112 119 105 70 60 56 79 113 135 133 126
332 332 336 332 331 324 326 327 319 316 314 311 310 311 310 313 314 312 312 313 318 313 309 315 317 318 323 324 324 337 351 312 290 276 236 227 167 177 154 109 132 149 146 84 101 91 119 73 26 71 155 160 332 32 288 120 279 126 111 219 241 182 245 180 186 224 283 304 310 303 311 266 239 161 148 162 142 140 134 107 107 80 87 106 132 131 128 132
332 332 328 329 326 326 324 320 321 319 315 313 309 309 308 306 306 307 306 305 311 314 314 315 318 321 319 323 323 0 341 299 254 273 306 228 221 175 148 128 132 151 166 141 197 133 123 176 189 143 37 119 5 115 353 79 224 99 213 206 240 205 260 219 198 253 222 286 293 311 327 268 154 238 136 172 154 165 162 151 145 140 143 144 142 137 134 139
332 330 328 325 328 328 324 323 320 320 312 311 311 307 310 309 307 308 310 314 315 314 315 319 321 320 323 320 325 340 281 279 69 329 259 257 191 167 159 135 131 119 103 66 137 104 113 105 84 127 105 70 56 261 208 130 230 132 216 230 256 187 262 246 194 239 256 219 267 298 302 211 207 207 179 145 144 210 212 210 162 165 159 155 149 143 142 148
330 328 323 324 323 323 322 317 317 311 312 306 306 303 303 302 300 301 304 307 309 313 317 321 322 322 323 321 347 293 270 243 61 250 264 340 151 147 153 141 124 116 100 134 106 64 77 75 104 46 76 154 4 76 261 75 347 140 237 263 222 146 256 261 252 232 235 166 237 287 314 338 13 185 161 166 181 186 190 198 305 166 155 156 152 149 150 152
325 325 321 321 321 321 319 318 317 316 311 309 305 304 301 302 301 300 302 305 313 316 318 320 322 325 322 326 306 185 244 62 232 276 2 46 132 138 144 137 124 113 122 91 92 75 135 50 108 75 72 142 146 203 95 221 166 242 209 248 235 233 264 298 259 215 175 241 269 307 315 305 237 169 180 181 210 37 316 289 150 152 164 153 146 148 154 156
327 323 323 321 320 318 319 318 318 314 310 309 305 302 302 302 303 304 310 315 312 315 318 319 323 326 332 348 151 262 208 291 294 288 34 119 133 135 135 131 130 118 109 103 68 84 43 100 95 116 107 109 52 270 353 236 231 245 265 326 272 182 229 247 260 244 266 286 267 157 40 271 203 189 170 182 143 308 320 186 129 134 147 148 146 154 155 155
324 319 315 317 316 314 314 315 313 312 313 313 313 306 305 303 304 307 304 306 311 309 314 322 326 325 339 332 214 301 47 311 285 23 85 133 129 125 111 99 125 119 119 138 138 122 145 112 126 171 60 70 138 209 93 227 101 206 263 229 265 200 236 253 262 288 275 259 259 212 248 267 180 299 143 203 30 323 102 128 121 130 145 146 146 152 153 151
319 316 314 313 312 313 310 312 313 312 312 314 314 313 304 300 301 303 300 304 305 308 317 325 327 332 326 265 65 344 77 243 329 35 109 123 124 127 142 111 179 128 118 112 89 146 187 203 115 229 35 205 151 271 172 225 210 202 238 214 259 261 266 285 295 279 267 271 170 222 114 57 114 82 181 134 85 128 127 128 129 132 143 152 156 154 157 158
317 316 315 314 315 310 310 309 310 309 310 314 320 322 312 305 299 298 302 303 302 311 316 324 332 339 3 216 232 78 230 84 55 105 121 131 125 122 36 127 135 120 137 141 106 121 202 171 96 173 124 103 168 258 71 199 26 181 237 238 264 277 315 346 298 310 359 262 25 215 61 71 46 232 160 46 114 137 125 132 143 143 145 146 155 157 159 157
319 318 315 310 307 307 304 305 305 307 307 311 316 319 324 313 307 298 303 300 298 305 316 319 338 357 16 313 51 104 157 87 107 130 133 145 138 137 145 156 151 145 125 115 160 194 205 167 163 131 205 82 181 273 198 215 115 206 251 277 255 280 259 266 255 279 269 348 288 154 74 209 354 239 44 78 170 167 134 144 150 150 148 151 148 154 161 163
320 316 312 310 307 304 306 306 304 303 305 307 310 316 321 321 309 303 295 299 305 309 312 320 343 338 318 20 192 159 351 205 132 134 139 149 113 189 161 164 166 143 146 150 214 208 195 161 160 15 336 147 291 211 223 180 238 276 270 291 304 344 142 8 18 32 287 43 256 222 117 41 299 175 2 231 162 164 140 146 156 154 148 150 154 157 165 175
318 313 312 308 306 304 304 304 303 304 309 307 307 309 311 313 314 303 294 284 292 320 334 327 347 1 273 341 220 219 255 159 129 127 124 63 106 70 142 172 116 132 139 129 199 218 213 155 112 170 171 198 271 308 91 94 259 258 89 333 293 353 71 19 308 317 141 31 265 271 199 219 243 268 335 157 160 144 132 151 159 155 153 156 161 166 172 174
318 313 311 309 306 303 301 302 306 306 304 307 307 305 303 306 304 299 286 269 294 305 310 2 332 309 227 239 268 214 191 131 121 134 156 203 116 60 78 57 86 88 38 57 37 142 184 335 131 63 103 215 263 312 283 329 358 269 345 62 17 295 51 10 32 308 104 334 193 194 298 318 228 351 23 304 210 163 156 159 166 162 161 166 172 175 185 188
317 314 310 308 304 300 300 303 304 306 309 308 308 302 293 283 288 305 295 290 264 263 346 55 52 263 41 280 270 280 136 124 158 209 175 152 143 109 164 66 143 120 85 117 74 72 115 127 123 186 260 305 265 305 259 350 29 9 213 26 3 338 70 329 43 23 56 87 323 225 276 291 348 335 359 120 226 224 162 167 172 173 172 175 180 188 194 187
315 313 309 303 301 301 301 302 306 311 311 310 307 302 287 264 250 228 218 245 233 241 40 293 12 309 142 23 108 118 134 258 35 230 202 151 161 138 120 135 118 112 169 67 9 122 35 99 39 23 278 157 155 98 1 149 58 20 4 111 354 322 16 285 66 72 74 247 55 357 319 302 117 12 236 115 202 207 189 180 176 179 180 184 190 193 194 176
317 311 309 302 301 301 299 302 306 308 315 320 322 306 282 259 214 192 186 184 260 67 292 81 231 241 58 160 198 207 320 273 185 104 115 187 150 133 118 103 83 93 85 82 71 114 13 177 6 176 42 66 358 254 246 52 129 60 337 81 312 17 352 89 319 84 4 18 41 29 225 246 360 319 250 193 196 200 198 191 190 186 190 195 195 195 197 202
318 315 306 305 299 301 302 302 304 305 318 354 331 347 103 111 143 111 92 123 122 166 309 223 242 292 273 321 276 1 184 281 319 107 80 181 127 117 91 96 232 104 105 104 72 168 347 208 328 147 310 8 347 48 41 139 98 137 119 112 125 223 272 324 317 7 352 52 45 334 249 291 282 303 223 184 179 201 210 200 196 197 197 199 204 206 207 207
320 313 306 301 301 299 302 301 298 304 340 25 38 96 101 81 69 140 129 187 192 338 339 111 169 349 148 159 318 285 226 212 108 169 141 135 125 93 77 90 59 303 71 85 44 171 25 157 108 65 265 353 46 65 27 73 176 326 184 88 172 140 136 229 211 22 4 341 75 68 355 326 299 287 193 191 168 191 202 197 201 209 213 215 218 220 218 216
321 313 309 303 302 300 298 298 296 299 332 120 119 100 167 359 340 34 100 42 215 235 267 241 107 301 299 266 273 286 245 47 162 26 90 231 129 129 48 34 18 58 86 177 339 74 312 134 220 214 253 231 206 209 167 154 146 95 101 173 169 232 245 264 268 0 357 234 135 41 276 267 286 290 240 192 154 177 193 199 195 200 203 210 217 220 221 218
320 318 309 306 300 305 293 290 295 313 73 146 151 160 43 179 37 331 324 266 213 234 237 237 203 231 263 354 287 337 13 317 49 78 166 148 104 157 7 10 26 143 49 330 176 1 238 46 248 224 228 224 152 146 110 97 132 187 152 196 174 213 194 97 49 9 23 300 54 41 275 276 273 285 257 119 192 210 197 200 204 201 206 212 217 222 223 221
326 317 316 308 310 300 297 273 264 114 71 139 205 105 160 191 273 241 101 316 305 233 231 266 8 271 301 253 237 138 113 17 190 247 349 198 56 191 290 94 160 178 42 206 221 91 64 218 245 234 133 95 85 120 144 158 141 122 212 177 228 224 278 304 243 336 349 257 339 108 302 279 248 279 285 196 203 218 208 206 206 196 200 208 217 224 223 213
328 326 316 318 309 306 299 310 189 174 164 179 97 107 128 304 201 255 94 163 272 227 187 301 225 250 286 267 263 167 148 198 186 223 182 149 106 229 143 140 95 69 144 154 212 160 264 282 218 96 145 112 72 103 130 103 104 155 155 182 236 42 306 192 157 339 17 7 347 1 300 285 292 281 283 284 248 278 296 247 238 225 211 206 211 214 211 214
333 328 325 317 313 324 266 118 102 133 208 232 203 115 169 255 77 140 153 275 319 311 210 211 201 210 233 269 186 145 167 218 141 237 23 164 133 147 120 139 99 193 205 183 174 192 233 108 83 119 144 179 138 147 147 169 178 226 219 234 256 181 212 245 340 325 241 120 31 235 236 257 64 165 176 43 312 281 244 216 207 229 253 290 293 271 234 225
335 336 330 323 319 4 165 132 148 236 148 147 247 250 244 249 205 192 115 322 167 271 269 257 197 243 202 87 81 222 194 76 242 329 212 139 125 131 55 142 189 222 157 99 89 45 278 328 161 113 131 141 142 154 208 162 207 192 222 213 221 187 194 237 300 286 320 229 53 360 304 183 336 279 185 24 330 283 326 322 16 96 200 224 235 234 231 236
337 337 343 329 330 1 135 166 233 139 187 221 138 142 246 244 208 192 101 77 70 289 326 185 180 114 139 147 115 187 96 272 66 234 162 231 135 133 132 101 12 236 158 170 214 261 311 72 212 184 147 133 187 222 222 201 183 175 239 194 190 168 131 135 159 259 284 302 55 323 296 277 306 81 119 106 294 262 289 1 325 301 196 211 226 232 229 231
335 339 337 345 18 122 161 97 202 161 39 296 261 286 266 256 176 157 243 4 59 51 29 289 227 109 211 154 154 133 201 101 335 88 124 223 215 357 184 183 68 58 131 169 49 170 142 104 82 58 103 133 179 290 189 175 152 208 64 146 142 145 168 176 155 228 293 348 261 50 4 280 286 240 102 303 313 302 29 87 287 335 266 239 239 241 239 237
334 333 341 324 75 196 281 335 168 318 205 294 308 318 318 61 128 53 81 67 277 283 13 293 289 192 252 339 103 228 320 259 44 181 241 308 141 34 259 194 193 172 156 170 290 97 183 136 178 168 103 170 267 229 152 197 172 350 105 178 134 150 135 130 173 125 17 285 267 166 116 267 232 252 144 237 238 246 67 9 349 312 280 264 261 262 262 253
332 329 323 20 91 145 5 219 38 219 254 286 313 323 37 90 110 117 132 100 250 358 225 88 65 114 344 31 60 12 310 3 22 355 320 90 34 202 194 200 164 129 26 249 253 202 249 218 217 198 196 262 206 338 175 170 202 37 126 93 91 87 69 58 147 132 153 247 261 236 122 266 278 229 289 119 313 287 36 331 313 311 315 317 309 298 274 275
328 326 320 171 130 167 281 235 221 254 314 317 324 279 74 56 12 41 32 201 6 140 221 267 321 297 30 132 18 11 214 347 92 325 36 148 4 52 40 122 127 127 158 26 283 248 321 298 134 202 222 243 108 48 73 30 61 125 209 99 72 54 64 73 56 55 122 237 246 257 19 251 285 261 307 325 37 311 315 301 305 319 326 327 325 314 310 300
330 318 317 155 199 183 140 332 257 242 283 315 284 77 77 42 138 88 129 252 325 305 314 20 347 16 37 60 73 347 89 347 1 357 161 347 78 49 83 153 75 65 70 351 255 339 308 90 185 222 40 119 123 90 45 50 121 157 174 124 123 95 32 101 45 52 227 253 233 28 320 173 245 181 157 85 310 261 255 277 309 323 329 329 326 325 325 319
327 306 240 184 241 130 193 339 301 107 315 305 51 63 86 244 30 134 196 353 118 338 57 304 84 63 28 356 79 0 14 343 29 28 27 17 91 233 57 213 92 229 207 31 304 350 292 189 358 305 222 182 158 104 106 97 182 184 130 142 250 241 56 215 192 217 209 255 67 28 101 191 224 258 9 84 299 320 263 265 300 316 316 323 326 330 330 327
330 296 198 200 234 258 243 290 329 356 347 31 69 41 64 92 233 264 277 342 177 238 50 154 297 9 300 71 16 348 291 37 323 105 263 33 159 50 268 338 275 225 272 85 297 358 278 242 325 300 101 45 197 207 140 190 181 185 199 159 214 240 181 256 201 1 304 253 39 221 44 274 341 274 73 12 349 348 305 316 322 319 313 315 323 329 337 346
343 168 130 202 208 249 286 288 300 320 10 43 98 51 57 74 222 153 306 242 10 13 55 24 350 43 36 82 8 338 92 283 353 351 10 44 48 54 74 81 25 12 66 126 278 87 299 322 95 329 154 16 278 274 212 276 170 198 20 198 221 198 204 229 220 243 262 320 43 26 212 241 215 102 338 16 317 336 7 346 341 321 321 317 316 320 352 11
0 62 136 110 235 247 254 277 285 139 83 68 55 82 126 232 235 204 228 320 281 293 124 342 110 64 32 24 333 352 14 153 54 316 26 22 40 30 16 12 4 102 89 205 164 50 281 258 268 259 305 281 190 89 123 108 96 77 224 59 158 224 131 253 21 270 260 188 182 174 249 287 240 16 323 300 56 49 4 7 339 348 345 336 330 360 14 16
272 303 174 45 359 347 331 293 124 83 93 57 78 55 163 200 37 189 99 205 287 268 313 36 64 87 332 322 302 43 357 7 5 77 36 48 123 45 307 258 358 339 198 272 138 191 181 232 333 319 149 32 25 238 229 236 238 147 169 204 199 45 122 88 111 53 40 30 243 86 271 221 267 177 116 95 80 49 18 8 4 354 349 345 9 3 17 18
13 329 62 338 356 347 340 105 143 76 62 92 98 230 203 234 221 176 257 255 308 120 55 181 347 84 339 279 292 335 343 2 22 5 58 263 131 16 336 304 260 299 232 237 221 232 266 276 348 273 143 106 223 106 69 34 125 113 225 154 107 158 50 166 241 48 44 242 251 118 216 194 176 231 155 153 152 67 20 12 359 349 360 28 11 13 24 24
347 13 67 33 333 327 313 239 63 56 75 82 168 212 240 132 186 228 291 10 159 47 106 98 326 27 222 201 273 220 335 37 344 35 44 326 94 5 155 310 296 1 326 196 255 23 221 272 303 349 275 303 0 207 92 78 343 282 321 113 230 208 212 76 120 217 197 219 256 181 305 266 228 214 150 175 168 156 107 18 9 34 26 23 16 20 28 29
48 70 295 296 338 340 329 38 75 75 67 63 187 26 213 268 242 185 235 185 83 117 176 248 174 48 125 171 205 291 278 1 41 24 256 159 172 32 29 134 219 68 2 187 64 126 337 267 274 133 211 359 332 24 243 125 57 75 157 127 35 274 272 194 204 7 229 265 103 225 167 243 191 245 189 160 163 155 145 145 74 18 14 7 17 12 22 25
26 21 307 281 340 351 319 85 61 47 77 272 180 234 357 224 289 249 267 243 320 142 233 155 214 136 223 232 163 316 137 181 164 166 285 70 148 8 8 320 281 322 60 345 122 284 121 55 270 75 273 288 208 344 267 211 166 151 194 126 128 37 337 16 76 234 245 196 204 251 245 221 129 168 179 158 160 168 169 144 150 19 30 32 19 10 11 27
225 97 263 309 348 336 62 47 46 55 114 352 209 269 303 23 317 297 341 350 81 357 143 189 157 192 196 137 245 191 152 135 161 164 201 103 233 208 8 306 335 309 355 95 70 25 91 150 247 331 314 268 331 25 345 130 16 343 247 232 162 165 185 210 223 102 249 209 205 168 234 176 112 157 224 156 154 155 185 222 207 176 65 34 26 16 9 28
49 8 276 336 350 0 104 288 45 263 93 166 143 188 281 15 134 320 324 351 52 84 17 100 17 134 135 173 193 163 158 187 174 224 232 196 62 36 115 107 260 264 324 110 48 346 344 122 161 252 259 294 339 96 283 271 230 288 284 243 166 1 177 231 254 185 174 220 46 14 351 227 62 192 187 110 120 158 191 232 241 125 67 54 43 26 32 38
51 226 283 314 350 7 72 66 328 57 107 279 308 251 258 305 184 223 260 359 348 27 358 48 164 178 243 250 187 171 191 183 175 222 87 110 111 299 314 314 266 179 207 83 272 191 161 281 217 267 312 271 258 319 109 158 179 171 92 73 191 215 230 251 261 128 223 124 196 158 234 184 118 16 34 4 128 248 258 246 254 67 81 80 54 40 30 40
237 285 322 301 355 53 89 210 164 155 316 317 44 276 280 262 31 7 30 329 60 346 41 326 59 93 71 48 127 177 186 204 245 136 130 206 132 180 344 334 294 87 1 113 231 145 256 143 248 309 328 297 282 196 169 148 152 38 287 75 355 84 76 76 97 96 241 192 233 208 248 150 156 29 135 187 8 175 181 171 233 34 93 67 60 51 45 43
260 258 243 301 349 35 115 176 139 137 41 26 338 29 348 41 243 18 285 348 3 107 143 52 348 296 72 41 86 100 38 357 117 5 85 99 110 333 320 9 345 80 339 306 260 98 235 188 160 253 252 253 240 236 265 277 253 336 227 246 202 175 141 164 219 164 233 106 193 217 243 128 92 235 195 209 333 159 190 199 158 136 92 77 71 56 46 43
30 359 318 340 13 32 80 21 63 107 94 21 52 3 103 338 354 0 75 65 22 67 29 259 178 109 68 147 102 34 86 31 322 141 159 124 320 342 22 328 34 7 7 64 34 105 151 69 230 224 245 255 256 261 39 32 165 244 192 234 213 69 359 17 70 162 233 149 210 187 274 140 192 182 210 208 196 222 189 176 148 133 144 127 100 88 71 58
136 66 355 341 334 46 77 27 24 10 72 311 117 343 26 331 296 324 48 152 24 132 62 32 358 250 235 91 141 125 335 144 42 111 54 138 244 291 323 345 306 2 350 44 11 104 90 244 200 219 239 260 320 276 108 215 266 271 269 261 210 201 190 205 201 235 112 132 247 157 225 219 203 197 212 224 199 213 232 217 174 159 153 142 124 108 101 83
59 245 73 117 337 341 7 13 20 9 17 284 84 9 47 348 10 35 340 63 312 6 206 184 51 43 49 203 140 154 112 68 18 151 138 211 289 336 98 30 57 326 337 51 352 82 110 248 148 174 239 238 215 240 189 227 236 257 252 265 264 227 174 207 226 210 174 218 262 155 199 211 219 225 218 227 211 211 208 200 181 116 121 133 138 119 99 77
94 45 122 311 299 291 257 301 309 72 40 30 98 36 58 58 47 309 298 324 14 17 10 161 345 25 23 346 122 152 138 182 255 329 205 135 48 350 127 17 209 346 36 39 34 24 191 256 176 198 261 260 244 240 176 214 236 224 232 237 241 247 241 236 244 224 213 234 255 203 204 224 199 211 226 255 118 162 114 43 147 147 140 135 139 133 108 92
27 1 344 0 62 78 339 4 33 24 90 346 75 17 70 26 29 350 51 9 349 348 336 84 339 28 42 55 57 71 357 357 6 134 201 90 177 204 260 236 102 99 15 60 102 73 217 268 106 167 254 249 267 161 187 228 233 254 244 244 242 241 249 243 257 237 336 287 272 226 229 247 245 255 261 66 62 113 218 201 157 136 150 158 145 127 109 85
327 339 332 331 38 337 338 14 21 19 78 8 46 8 31 43 19 345 317 348 27 331 9 30 304 135 43 61 64 96 110 325 294 303 284 183 327 224 225 216 170 297 18 93 169 132 179 266 75 197 269 257 219 253 259 241 241 252 254 254 252 239 244 202 224 201 209 240 239 221 245 253 249 236 268 242 240 233 213 170 151 158 164 160 134 113 92 76
288 205 322 252 93 11 10 352 6 214 69 31 355 336 3 32 331 308 122 69 81 53 336 282 276 62 49 50 45 349 319 283 271 266 251 265 295 282 242 343 176 263 264 205 40 233 201 173 194 160 251 257 232 229 265 313 311 268 232 218 235 239 235 232 231 186 212 208 231 225 241 325 345 325 240 232 219 229 207 156 143 150 177 165 138 119 102 79